THORAD DELTA 1 DEB, 9987

Orbit data source: Space-Track

THORAD DELTA 1 DEB, 9987 is space debris in SSO originally from a launch on Fri, 15 Nov 1974 UTC launched from the Air Force Western Test Range (AFWTR). Debris objects in space refer to the collection of defunct objects orbiting the Earth. Examples of debris include non-operational satellites, rocket bodies, and fragments generated from explosions, collisions, or faulty payload assembly.

Loading next visibility...
Identifier
9987, 1974-089EE
Orbit
SSO
Country
Flag of USUS
Related business
Manufacturer
Unknown
Mission
Spacecraft
Bus & Motor
Unknown
Mass
Unknown
Launch date (UTC)
1974-11-15 (52 years ago)
Launch vehicle
Unknown
Launch site
Air Force Western Test Range (AFWTR)
Object type
Payload
Rocket body
Debris
Shape & HBR
Unknown shape, 0.1 m
Radar Cross Section
Small (<0.1 m²)

Expand to show TLE details & history
Last TLE update: 6 hours ago

TLE from 6 hours ago
0 THORAD DELTA 1 DEB
1 09987U 74089EE  26144.96710659  .00000400  00000-0  27708-2 0  9991
2 09987 101.4727 280.6208 0105471 150.0882 330.4434 12.52238644346444
Epoch: 2026-05-24T23:12Z
TLE epoch observation values (Epoch: 2026-05-24T23:12:38.009Z)
Latitude
58.23273°
Longitude
-111.06538°
Altitude
1,393.122 km
Speed
7.201 km/s
True Right ascension
07h 58m 37s
True Declination
58° 05' 28"
Sunlit
Object was in daylight at epoch
Visualization orbit readout
Latitude
Unknown
Longitude
Unknown
Altitude
Unknown
Speed
Unknown
Apparent Right ascension
Unknown
Apparent Declination
Unknown
Sunlit
N/A
Visualization observer readout
Local Sidereal Time
14:11:48
Azimuth
Unknown
Elevation
Unknown
Doppler factor
Unknown
Orbital elements
Apogee altitude
1,535.265 km
Perigee altitude
1,370.08 km
Semi-major axis
7,830.81 km
Eccentricity
0.01055
Inclination
101.4727°
RAAN
280.6208°
Arg. of periapsis
150.0882°
True anomaly
329.84031°
Mean anomaly
330.4434°
Eccentric anomaly
330.14255°
Mean motion
3.13208 °/min
Orbital period
114.94 mins
BSTAR
0.0027708
Loading maneuver chart data...
Computing Atmospheric mass density...

Documentation

Showing up to 5 results
|